Location: Kernec
(47.9667°N, 3.5546°W)
Time: 14:07:28
(UTC+00:00)

Daily predictions for brighter satellites

Satellite Brightness Start Highest point End
(mag) Time Altitude Azimuth Time Altitude Azimuth Time Altitude Azimuth
NOAA 11 4.2 16:48:12 10° SSE 16:53:37 87° ENE 16:59:06 10° NNW
Cosmos 1833 Rocket 2.9 16:48:36 10° S 16:54:06 59° ESE 16:59:39 10° NE
USA 229 DEB 4.1 16:48:17 10° NW 16:55:37 85° SW 17:03:26 10° SE
USA 229 4.1 16:48:22 10° NW 16:55:43 85° SW 17:03:32 10° SE
Cosmos 841 Rocket 4.3 16:51:16 10° SSE 16:55:47 32° E 17:00:18 10° NE
SeaSat 1 3.6 16:51:43 10° NNE 16:56:19 40° NW 17:00:54 10° WSW
CZ-2C R/B 2.8 16:51:57 10° SSE 16:56:46 68° ENE 17:01:30 10° N
Okean O Rocket 3.3 16:56:40 10° E 16:58:51 14° ENE 17:01:03 10° NNE
USA 306 3.7 16:55:23 10° WNW 16:59:21 36° N 17:03:16 10° ENE
Cosmos 1937 Rocket 3.6 16:56:03 10° NNW 17:01:22 64° ENE 17:06:38 10° SSE
H-2A R/B 2.9 16:57:58 10° ESE 17:02:10 27° ENE 17:06:19 10° N
ISS -3.7 16:59:38 10° WNW 17:03:03 86° NNE 17:06:26 10° ESE
Cosmos 1939 Rocket 3.2 16:59:17 10° SE 17:03:11 44° ENE 17:07:04 10° N
COSMOS 2406 3.5 16:57:42 10° S 17:03:16 54° ESE 17:08:51 10° NE
ATLAS 2AS CENTAUR R/B 4.2 16:57:34 10° WNW 17:03:48 26° NNW 17:09:47 10° NE
Cosmos 1606 3.8 17:00:54 10° SSW 17:04:31 44° WNW 17:08:11 10° N
Meteor 1-31 Rocket 4.4 17:01:15 10° SSW 17:04:50 39° W 17:08:27 10° NNW
Cosmos 990 Rocket 4.4 16:59:40 10° NNW 17:04:51 69° WSW 17:09:58 10° S
Cosmos 372 Rocket 4.3 17:01:04 10° NNW 17:06:08 47° ENE 17:11:11 10° SE
CZ-2C R/B 4.0 17:04:41 10° NE 17:07:57 17° E 17:11:11 10° SE
Cosmos 1500 3.7 17:06:45 10° N 17:10:13 35° ENE 17:13:39 10° SE
Cosmos 1500 Rocket 3.7 17:08:40 10° N 17:13:08 82° W 17:17:32 10° S
USA 234 3.3 17:08:09 10° ESE 17:14:39 71° NNE 17:21:09 10° NW
Cosmos 1782 3.3 17:12:41 10° SSE 17:16:25 40° E 17:20:10 10° NNE
Cosmos 2221 3.6 17:12:28 10° SSW 17:16:35 46° WNW 17:20:47 10° N
Sich 1 3.1 17:13:39 10° N 17:17:53 53° ENE 17:22:06 10° SSE
CZ-2D R/B 4.0 17:15:16 10° SE 17:18:38 30° ENE 17:22:01 10° N
USA 307 3.7 17:15:05 10° WNW 17:19:03 36° N 17:22:25 13° ENE
SL-08 R/B 3.5 17:14:58 10° N 17:19:40 74° WNW 17:24:16 10° SSW
CZ-4B R/B 3.8 17:16:33 10° ESE 17:21:12 31° ENE 17:25:49 10° N
NOSS 2-2 (E) 4.5 17:17:25 10° NW 17:22:41 87° SW 17:30:08 10° SE
NOSS 2-2 (D) 4.3 17:17:41 10° NW 17:22:47 81° NE 17:29:58 10° SE
ATLAS 5 CENTAUR R/B 3.5 17:14:38 10° NW 17:23:39 35° NNE 17:26:27 14° ENE
NOAA 6 4.0 17:18:59 10° SSE 17:24:05 70° ENE 17:29:12 10° N
Cosmos 1805 Rocket 3.5 17:20:53 10° N 17:25:15 80° E 17:29:36 10° SSE
Cosmos 1340 Rocket 4.2 17:22:25 10° NNW 17:26:18 43° W 17:30:10 10° SSW
PAYLOAD B 4.5 17:21:56 10° SE 17:27:17 48° ENE 17:32:39 10° N
SL-24 R/B - RUBIN 2 3.5 17:23:08 10° NW 17:27:43 87° NE 17:32:03 10° SE
ERBS 4.2 17:26:53 10° NW 17:29:08 17° N 17:30:53 12° NNE
deb Chang Zheng 4 4.4 17:27:35 10° ESE 17:31:14 27° ENE 17:34:53 10° N
Cosmos 540 Rocket 3.4 17:30:13 10° SSW 17:35:20 86° ESE 17:40:29 10° NNE
Cosmos 2360 Rocket 3.6 17:31:57 10° N 17:35:42 18° NE 17:37:21 16° ENE
Lacrosse 5 rocket 1.6 17:32:30 10° NW 17:36:15 45° NNE 17:39:13 16° E
ATLAS CENTAUR R/B 3.9 17:35:54 10° NW 17:37:48 12° NNW 17:39:45 10° N
Cosmos 1666 3.0 17:35:48 10° N 17:39:20 41° ENE 17:42:52 10° SSE
USA 308 3.6 17:37:47 10° WNW 17:41:47 38° N 17:44:08 21° ENE
Cosmos 1092 Rocket 4.4 17:41:22 10° NNW 17:47:42 71° W 17:53:58 10° S
Meteor 2-16 Rocket 4.4 17:42:48 10° N 17:48:54 63° ENE 17:54:58 10° SSE
Meteor 1-26 Rocket 4.4 17:44:50 10° S 17:50:50 86° E 17:56:55 10° NNE
COSMOS 2455 2.8 17:45:20 10° SSW 17:51:22 87° ESE 17:56:40 14° NE
Meteor 1-11 Rocket 4.4 17:46:50 10° N 17:51:50 31° ENE 17:56:53 10° SE
PSLV R/B 3.6 17:50:18 10° SSE 17:53:59 85° ENE 17:57:46 10° NNW
Cosmos 1814 Rocket 4.0 17:51:34 10° S 17:56:44 64° ESE 18:00:57 15° NNE
Cosmos 1697 Rocket 4.2 17:51:46 10° NW 17:56:56 38° WSW 18:02:04 10° S
Cosmos 921 Rocket 3.8 17:53:38 10° SSE 17:57:14 29° E 17:57:55 27° E
Cosmos 2322 Rocket 2.9 17:52:31 10° NNW 17:57:37 32° NE 18:00:16 22° E
Cosmos 1570 Rocket 4.1 17:52:44 10° S 17:57:51 57° ESE 18:01:47 17° NNE
SL-08 RB Rocket 4.3 17:56:20 10° SE 18:00:28 33° ENE 18:04:35 10° N
Cosmos 2298 Rocket 4.2 17:56:07 10° NNW 18:01:16 47° ENE 18:06:23 10° SE
COSMO-SKYMED 1 2.9 17:59:54 21° NE 18:02:21 42° E 18:06:29 10° S
Cosmos 1980 Rocket 2.6 17:56:48 10° NNW 18:02:26 66° WSW 18:07:59 10° SSE
CZ-4C R/B 3.0 17:55:45 10° NW 18:02:57 87° SW 18:11:25 10° SE
Cosmos 1812 2.6 18:02:39 10° S 18:06:30 87° E 18:09:55 13° N
Cosmos 1633 Rocket 2.9 18:02:29 10° N 18:06:53 78° E 18:11:17 10° SSE
USA 305 3.3 18:03:18 10° WNW 18:07:24 45° NNE 18:08:38 35° ENE
Cosmos 2142 Rocket 4.4 18:04:48 10° S 18:10:57 83° E 18:17:14 10° N
YAOGAN 1 4.1 18:14:04 20° NNE 18:14:04 20° NNE 18:15:46 10° N
CZ-2C R/B 3.8 18:11:48 10° S 18:12:48 11° SSE 18:13:48 10° SSE
CZ-4 R/B 4.4 18:09:30 10° SSE 18:13:32 55° ENE 18:17:35 10° N
Cosmos 1151 Rocket 2.9 18:09:11 10° S 18:13:32 90° NE 18:17:49 11° N
Cosmos 2279 Rocket 3.9 18:08:01 10° S 18:14:13 83° E 18:20:27 10° N
Cosmos 1818 3.5 18:09:01 10° NW 18:14:32 81° NE 18:20:00 10° SE
Meteor 1-5 Rocket 4.4 18:10:45 10° NNW 18:16:47 85° W 18:22:39 10° S
SL-16 R/B 2.3 18:11:26 10° NNW 18:17:00 53° ENE 18:21:04 18° SE
Cosmos 2266 Rocket 4.1 18:11:19 10° N 18:17:37 56° ENE 18:23:54 10° SSE
Cosmos 2082 Rocket 2.5 18:14:42 10° SW 18:20:21 68° WNW 18:24:53 16° NNE
USA 267 3.4 18:19:25 25° NE 18:23:26 72° NNW 18:29:56 10° WSW
Landsat 5 3.6 18:25:10 48° ESE 18:25:10 48° ESE 18:28:48 10° S
SKYMED 3 4.4 18:24:18 28° NNE 18:26:34 74° ESE 18:30:53 10° S
ARGOS 3.0 18:23:02 10° SSE 18:28:27 83° ENE 18:33:53 10° NNW
X-37B 3.2 18:29:22 10° S 18:29:43 11° S 18:29:43 11° S
Meteor 2-15 4.3 18:25:13 10° S 18:31:17 71° E 18:37:22 10° NNE
GEOS 3 Rocket 3.9 18:30:35 42° ENE 18:31:30 46° NE 18:36:26 10° NNW
Cosmos 1933 Rocket 4.4 18:27:54 10° N 18:30:33 33° NNE 18:30:33 33° NNE
Cosmos 2333 Rocket 3.6 18:27:42 10° N 18:31:05 22° NNE 18:31:05 22° NNE
Cosmos 2278 4.5 18:27:01 10° NW 18:32:35 53° WSW 18:38:04 10° S
Cosmos 44 Rocket 3.4 18:29:37 10° NW 18:34:32 74° WSW 18:38:14 17° SSE
Cosmos 2208 Rocket 4.0 18:29:08 10° SSW 18:34:33 89° WNW 18:37:42 26° NNE
Okean O Rocket 1.6 18:30:06 10° SSE 18:34:34 86° W 18:39:03 10° NNW
Cosmos 1328 Rocket 3.7 18:33:01 10° SSW 18:37:27 73° W 18:40:29 20° N
Cosmos 2150 Rocket 3.8 18:32:36 10° NNW 18:37:49 83° ENE 18:43:03 10° SSE
Cosmos 1470 Rocket 3.5 18:33:33 10° N 18:38:03 85° W 18:42:32 10° S
Cosmos 1833 Rocket 4.3 18:33:35 10° WSW 18:38:24 29° NW 18:43:04 11° N
ISS -1.3 18:36:56 10° W 18:39:32 20° SW 18:41:23 14° S
Cosmos 1867 4.5 18:34:44 10° S 18:38:42 31° SE 18:38:42 31° SE
USA 306 3.0 18:35:33 10° WNW 18:39:36 57° N 18:39:36 57° N
H-2A R/B 3.0 18:36:26 10° S 18:41:23 47° W 18:46:15 10° NNW
MOS 1-B Rocket 4.4 18:42:06 10° N 18:47:58 65° WNW 18:54:39 10° SSW
Cosmos 2219 Rocket 3.8 18:44:02 10° N 18:46:30 19° NNE 18:46:30 19° NNE
CZ-2C R/B 2.7 18:44:29 15° N 18:48:50 73° WNW 18:53:58 10° SSW
USA 32 3.9 18:44:11 10° S 18:49:19 63° E 18:49:26 63° E
Cosmos 1125 Rocket 3.4 18:44:35 10° NNW 18:49:52 85° WSW 18:54:40 13° SSE
SKYMED 2 3.9 18:48:31 31° N 18:50:29 64° WNW 18:54:47 10° SSW
ATLAS CENTAUR R/B 3.1 18:46:57 10° W 18:53:45 39° NNW 18:54:28 36° N
NOSS 3-4 (A) 4.4 18:48:43 10° NW 18:54:48 36° NNE 18:55:00 36° NE
NOSS 3-4 (C) 4.4 18:48:48 10° NW 18:54:54 35° NNE 18:55:05 35° NE
Spot 2 4.3 18:54:14 33° SSE 18:56:36 80° ENE 19:01:43 10° NNW
Meteor 1-27 Rocket 3.6 18:51:28 10° S 18:56:41 65° ESE 18:56:41 65° ESE
ATLAS 2AS CENTAUR R/B 3.9 18:51:06 10° NW 18:57:17 26° NNE 18:58:02 26° NNE
USA 234 4.2 18:51:41 10° SSE 18:57:54 45° SW 19:04:07 10° WNW
USA 307 3.5 18:55:11 10° WNW 18:58:27 48° NW 18:58:27 48° NW
CZ-4B R/B 4.2 18:56:28 10° S 19:01:36 44° W 19:06:43 10° NNW
Cosmos 1655 Rocket 4.3 18:57:56 10° NNW 19:04:17 68° W 19:10:34 10° S
Lacrosse 5 rocket 2.7 19:11:36 10° WNW 19:14:52 36° WSW 19:14:52 36° WSW
Cosmos 2237 4.1 19:11:32 10° NNW 19:17:01 82° NNW 19:17:01 82° NNW
Cosmos 2360 Rocket 2.7 19:15:04 10° NNW 19:19:09 48° N 19:19:09 48° N
USA 308 4.4 19:17:46 10° WNW 19:20:10 33° WNW 19:20:10 33° WNW
COSMOS 2455 4.5 19:33:05 10° W 19:38:04 26° NW 19:39:48 23° N
Cosmos 2322 Rocket 2.8 19:36:24 10° NW 19:41:55 52° WSW 19:42:10 51° WSW
SL-16 R/B 3.9 19:56:03 10° NW 20:00:49 28° WSW 20:03:05 22° SW
Cosmos 2082 Rocket 4.4 20:01:57 10° WNW 20:05:33 17° NW 20:06:45 16° NNW
USA 267 4.1 20:06:46 41° NNW 20:06:46 41° NNW 20:12:02 10° WNW
Cosmos 2333 Rocket 4.3 20:11:28 10° NNW 20:13:07 20° NNW 20:13:07 20° NNW
